Location: Detroit
(42.3310°N, 83.0460°W)
Time: 08:24:18
(UTC-04:00)

Explorer 11/Cluster Stage 4 - Pass Details

Date: 11 February 2023
Orbit: 466 x 1241 km, 28.8° (Epoch: 02 April)

Event Time Altitude Azimuth Distance (km) Brightness Sun altitude
Exits shadow 04:56:32 26° 183° (S) 2,009 8.5 -29.6°
Drops below altitude 10° 05:02:31 10° 132° (SE) 3,097 10.1 -28.5°
Sets 05:06:02 0° 121° (ESE) 4,124 11.0 -27.9°
